Tracking 34717 objects as of 15-Jul-2026
HD Live streaming from Space Station
objects crossing your sky now

BREEZE-M DEB

Track BREEZE-M DEB now!
10-day predictions


NORAD ID: 39174
Int'l Code: 2013-026C
Perigee: 351.8 km
Apogee: 14,547.2 km
Inclination: 50.8 °
Period: 269.5 minutes
Semi major axis: 13820 km
RCS: Unknown
Launch date: June 3, 2013
Source: Commonwealth of Independent States (former USSR) (CIS)
Launch site: TYURATAM MISSILE AND SPACE COMPLEX (TTMTR)

Note: This is SATELLITE DEBRIS
Your satellite tracking list
Your tracking list is empty




NASA's NSSDC Master Catalog

Two Line Element Set (TLE):
1 39174U 13026C   26195.65359881  .00001602  00000-0  56740-3 0  9998
2 39174  50.7827 359.5990 5135651 173.5324 197.3599  5.34339759252376
Source of the keplerian elements: AFSPC